Starlink 1817

operational
NORAD ID: 46715 Int'l Des: 2020-073 Owner: SPXS Country: US Constellation: starlink
LEOCIRCULARSTARLINK_TYPE

Starlink 1817について

説明を読み込み中...

リアルタイム位置

3D地球を読み込み中...

次回通過

高度履歴

Altitude vs Time

uPlot chart will show altitude changes over time

軌道要素

1 46715U 20073AX 25353.00002315 .01634588 00000-0 66624-1 0 9994
2 46715 53.0531 243.4642 0000735 118.6048 170.5291 15.21122534 5714
Epoch: Dec 19, 2025 • Age: 6 hours

現在のステータス

高度 505.4 km
速度 7.62 km/s
衛星直下点 48.87°N, 167.42°W
打ち上げ日 Oct 18, 2020
運用期間 5.1 years
タイプ internet

技術仕様

分類 Payload
質量 260.00 kg
乾燥質量 248.00 kg
総質量 260.00 kg
長さ 0.20 m
直径 2.80 m
スパン 9.00 m
形状 Box + pan
製造者 SPXS
バスタイプ Starlink
フェーズステータス In Orbit
所有者/国 SPXS/US

大規模コンステレーション

Loading constellations...